Location: Edmonton
(53.5500°N, 113.5000°W)
Time: 08:42:52
(UTC-06:00)

N. Korean satellite - Visible Passes

Search period start: 21 October 2019 00:00
Search period end: 31 October 2019 00:00
Orbit: 455 x 508 km, 97.2° (Epoch: 20 October)

Date Brightness Start Highest point End Pass type
(mag) Time Alt. Az. Time Alt. Az. Time Alt. Az.
21 Oct 10.5 06:15:31 10° ENE 06:16:09 10° E 06:16:47 10° E visible
22 Oct 7.8 07:21:14 10° NNE 07:24:45 48° E 07:28:19 10° S visible
22 Oct 9.9 19:37:33 10° SW 19:39:49 16° W 19:42:07 10° NW visible
23 Oct 9.1 06:56:12 10° NE 06:59:20 27° E 07:02:30 10° SSE visible
23 Oct 8.9 19:11:15 10° SSW 19:14:18 29° W 19:17:25 10° NNW visible
24 Oct 10.0 06:31:32 10° NE 06:33:49 16° E 06:36:06 10° SE visible
25 Oct 6.8 07:38:36 10° NNE 07:42:15 77° ESE 07:45:56 10° S visible
25 Oct 10.3 19:56:22 10° WSW 19:57:27 11° W 19:58:32 10° WNW visible
26 Oct 8.2 07:13:24 10° NNE 07:16:53 40° E 07:20:23 10° S visible
26 Oct 9.6 19:29:15 10° SW 19:31:51 20° W 19:34:31 10° NW visible
27 Oct 9.4 06:48:26 10° NE 06:51:25 23° E 06:54:25 10° SSE visible
27 Oct 8.4 19:03:08 10° SSW 19:06:21 35° W 19:09:39 10° NNW visible
28 Oct 10.2 06:23:59 10° ENE 06:25:52 13° E 06:27:45 10° ESE visible
29 Oct 7.2 07:30:42 10° NNE 07:34:22 63° ESE 07:38:02 10° S visible
29 Oct 10.1 19:47:37 10° WSW 19:49:26 13° W 19:51:16 10° WNW visible
30 Oct 8.6 07:05:33 10° NNE 07:08:57 34° E 07:12:21 10° SSE visible
30 Oct 9.3 19:20:59 10° SSW 19:23:51 24° W 19:26:48 10° NW visible
